Location: StarHub Observatory
(35.2598°N, 77.5855°W)
Time: 03:21:38
(UTC-05:00)

Hubble Space Telescope - Pass Details

Date: 01 December 2021
Orbit: 534 x 538 km, 28.5° (Epoch: 28 January)

Event Time Altitude Azimuth Distance (km) Brightness Sun altitude
Exits shadow 05:25:27 22° 218° (SW) 1,174 2.2 -19.1°
Maximum altitude 05:26:39 26° 190° (S) 1,063 2.3 -18.8°
Drops below altitude 10° 05:30:06 10° 133° (SE) 1,773 4.3 -18.2°
Sets 05:32:36 0° 120° (ESE) 2,662 5.8 -17.7°
